[[{"header":{"parameterUnit":"m.s-1","parameterCategory":1,"la1":30.2991,"la2":30.254,"lo1":-89.0895,"lo2":-89.0444,"dy":0.0017,"dx":0.0017,"nx":28,"ny":28,"refTime":"2025-12-23T09:00:00:Z","depth":0,"parameterNumber":2,"parameterNumberName":"U-component_of_WINDS"},"data":[0,0,0,0,0,0,0,0,0,0,0,0,0,0,0,0,0,0,0,0,0,0,0,0,0,0,0,0,0,0,0,0,0,0,0,0,0,0,0,0,0,0,0,0,0,0,0,0,0,0,0,0,0,0,0,0,0,0,-2.1472,-2.1473,0,-2.1536,-2.1537,-2.1538,-2.1499,-2.1497,-2.1495,-2.1493,-2.1564,-2.1568,-2.1571,0,0,0,0,0,0,0,0,0,0,0,0,0,-2.1321,-2.1324,-2.1472,-2.1473,-2.1474,-2.1536,-2.1537,-2.1538,-2.1499,-2.1497,-2.1494,-2.1492,-2.1563,-2.1567,-2.1572,0,0,0,0,0,0,0,0,0,0,0,0,0,-2.1386,-2.1325,-2.1472,-2.1462,-2.1462,-2.1536,-2.1537,-2.1538,-2.1499,-2.1497,-2.1494,-2.1491,-2.1562,-2.1567,-2.1572,-2.1662,0,0,-2.1589,-2.1591,0,0,0,0,0,0,0,0,-2.1383,-2.1392,-2.1463,-2.1463,-2.1462,-2.1507,-2.151,-2.158,-2.15,-2.1485,-2.1493,-2.149,-2.1548,-2.1554,-2.1572,-2.1666,-2.1669,-2.1589,-2.1593,-2.1595,-2.1597,0,0,0,0,0,0,0,-2.1378,-2.1389,-2.1498,-2.1464,-2.1464,-2.1456,-2.1462,-2.1523,-2.1532,-2.1486,-2.1484,-2.1491,-2.1547,-2.1567,-2.1574,-2.167,-2.1589,-2.1594,-2.1598,-2.16,-2.1842,-2.1845,0,0,0,0,0,0,-2.1374,-2.1386,-2.1496,-2.15,-2.1415,-2.1461,-2.1467,-2.1495,-2.1531,-2.1533,-2.1494,-2.1489,-2.1559,-2.1568,-2.1576,-2.1685,-2.1595,-2.16,-2.1603,-2.1838,-2.1842,-2.1846,0,0,0,0,0,0,-2.1371,-2.1384,-2.1493,-2.1442,-2.1455,-2.1466,-2.1498,-2.1498,-2.1518,-2.1536,-2.1538,-2.1513,-2.1557,-2.1569,-2.1641,-2.1687,-2.1603,-2.1608,-2.1835,-2.184,-2.1844,-2.1903,0,0,0,0,0,0,-2.1367,-2.1383,-2.1416,-2.1443,-2.1458,-2.1556,-2.1501,-2.1501,-2.1527,-2.1522,-2.1554,-2.1557,-2.1556,-2.1633,-2.1647,-2.1693,-2.1612,-2.1831,-2.1837,-2.1843,-2.1897,-2.1909,-2.192,0,0,0,0,0,-2.1361,-2.1432,-2.1418,-2.1432,-2.15,-2.1559,-2.1567,-2.1563,-2.1531,-2.1565,-2.1577,-2.1556,-2.1679,-2.1641,-2.1656,-2.1705,-2.1828,-2.1835,-2.1842,-2.1892,-2.1907,-2.192,0,0,0,0,0,0,-2.1412,-2.1435,-2.142,-2.1501,-2.1528,-2.1552,-2.1595,-2.1579,-2.1617,-2.1611,-2.1605,-2.1613,-2.1689,-2.1704,-2.1661,-2.1794,-2.1749,-2.1759,-2.1782,-2.1796,-2.1807,-2.1803,-2.1616,0,0,0,0,0,-2.1432,-2.1476,-2.1495,-2.1564,-2.1578,-2.1584,-2.161,-2.1604,-2.1632,-2.1644,-2.1661,-2.1691,-2.1737,-2.1767,-2.181,-2.1899,-2.1906,-2.194,-2.1951,-2.196,-2.197,-2.2019,-2.2035,-2.1869,-2.1869,-2.1869,0,0,-2.1475,-2.1493,-2.1522,-2.1575,-2.1595,-2.1643,-2.1594,-2.1647,-2.1683,-2.1653,-2.1722,-2.1736,-2.1769,-2.185,-2.1887,-2.1865,-2.2017,-2.1969,-2.1976,-2.1981,-2.2028,-2.2044,-2.2058,-2.1874,-2.1873,-2.1872,0,0,-2.1578,-2.1595,-2.1655,-2.1676,-2.1707,-2.171,-2.1725,-2.1751,-2.1759,-2.1828,-2.1806,-2.185,-2.1928,-2.1953,-2.1975,-2.2087,-2.207,-2.2101,-2.2161,-2.2209,-2.2223,-2.2234,-2.2276,-2.2291,-2.2111,-2.2111,-2.2111,0,-2.1629,-2.1698,-2.1689,-2.1743,-2.1768,-2.174,-2.1803,-2.1824,-2.1868,-2.1886,-2.186,-2.1958,-2.1978,-2.2065,-2.2093,-2.2111,-2.2129,-2.2099,-2.2221,-2.2232,-2.2243,-2.2283,-2.2298,-2.2114,-2.2114,-2.2114,-2.2113,0,-2.1759,-2.1807,-2.1853,-2.1894,-2.1923,-2.1981,-2.1983,-2.2014,-2.2005,-2.2012,-2.2084,-2.2107,-2.2154,-2.2174,-2.2167,-2.2261,-2.2247,-2.2221,-2.2176,-2.2263,-2.23,-2.2315,-2.212,-2.2118,-2.2117,-2.2116,0,0,-2.1897,-2.1932,-2.1949,-2.1968,-2.1999,-2.2037,-2.2094,-2.2139,-2.2167,-2.2198,-2.2247,-2.2313,-2.2289,-2.2315,-2.231,-2.2353,-2.2442,-2.2322,-2.2323,-2.2345,-2.2549,-2.2569,-2.2587,-2.243,-2.2432,-2.2435,-2.2547,0,-2.2004,-2.2101,-2.2095,-2.2188,-2.2234,-2.2208,-2.2258,-2.2284,-2.2292,-2.2333,-2.2342,-2.239,-2.2354,-2.237,-2.241,-2.2422,-2.2483,-2.2414,-2.2478,-2.248,-2.2472,-2.2606,-2.2628,-2.2733,-2.2561,-2.2563,-2.2565,0,-2.2141,-2.2175,-2.2272,-2.2297,-2.2316,-2.2361,-2.2401,-2.244,-2.2469,-2.2472,-2.2501,-2.2489,-2.2549,-2.25,-2.2583,-2.2536,-2.2562,-2.2572,-2.2576,-2.2583,-2.2529,-2.2619,-2.2766,-2.2782,-2.2588,-2.2586,-2.2584,0,-2.2234,-2.2304,-2.2372,-2.2388,-2.2419,-2.2451,-2.2465,-2.2491,-2.2519,-2.2555,-2.2573,-2.2616,-2.264,-2.2674,-2.2675,-2.2639,-2.276,-2.2711,-2.2766,-2.2766,-2.2794,-2.2793,-2.2949,-2.2807,-2.2807,-2.2807,-2.2806,0,-2.2355,-2.2416,-2.2414,-2.2456,-2.2524,-2.2516,-2.2584,-2.2596,-2.2619,-2.2664,-2.2644,-2.2687,-2.2684,-2.2728,-2.2729,-2.2799,-2.281,-2.2815,-2.2815,-2.2818,-2.2818,-2.2836,-2.283,-2.2811,-2.281,-2.2809,-2.2808,0,-2.2471,-2.2472,-2.2544,-2.2567,-2.2574,-2.2623,-2.2643,-2.2683,-2.2689,-2.2746,-2.2759,-2.2768,-2.2819,-2.2822,-2.2881,-2.2882,-2.2967,-2.2958,-2.2957,-2.2956,-2.3011,-2.3007,-2.3187,-2.3211,-2.3052,-2.3053,-2.3054,0,-2.2549,-2.2595,-2.2622,-2.2649,-2.2665,-2.271,-2.2738,-2.2732,-2.2762,-2.2798,-2.2835,-2.2883,-2.2922,-2.3004,-2.3018,-2.3063,-2.3056,-2.3116,-2.3063,-2.3065,-2.3059,-2.3057,-2.3063,-2.3127,-2.3129,-2.313,-2.3131,0,-2.2687,-2.2685,-2.2725,-2.2765,-2.2798,-2.2829,-2.2859,-2.2883,-2.2881,-2.2916,-2.2966,-2.2996,-2.3055,-2.3104,-2.3148,-2.3165,-2.3149,-2.3147,-2.3163,-2.3167,-2.3166,-2.3169,-2.2987,-2.3144,-2.3143,-2.3142,-2.3141,-2.3141,-2.2788,-2.2828,-2.2853,-2.2898,-2.2919,-2.2947,-2.2986,-2.2996,-2.3037,-2.3084,-2.3079,-2.3136,-2.3164,-2.3221,-2.3241,-2.3287,-2.3267,-2.3289,-2.3295,-2.3301,-2.3307,-2.3156,-2.3295,-2.3294,-2.3294,-2.3294,-2.3293,0,-2.2927,-2.2942,-2.2983,-2.3024,-2.3059,-2.3038,-2.307,-2.3102,-2.3151,-2.3178,-2.3216,-2.3275,-2.3322,-2.3339,-2.3385,-2.3418,-2.3412,-2.3431,-2.343,-2.3434,-2.3322,-2.3305,-2.3435,-2.3435,-2.3435,-2.3435,-2.3435,-2.3435,-2.3004,-2.3071,-2.3072,-2.315,-2.3164,-2.3218,-2.3238,-2.3265,-2.3286,-2.3352,-2.3391,-2.34,-2.3424,-2.3472,-2.3515,-2.3519,-2.3538,-2.356,-2.3561,-2.3456,-2.3442,-2.3428,-2.3412,-2.3564,-2.3564,-2.367,-2.3671,-2.3671]},{"header":{"parameterUnit":"m.s-1","parameterCategory":1,"la1":30.2991,"la2":30.254,"lo1":-89.0895,"lo2":-89.0444,"dy":0.0017,"dx":0.0017,"nx":28,"ny":28,"refTime":"2025-12-23T09:00:00:Z","depth":0,"parameterNumber":3,"parameterNumberName":"V-component_of_WINDS"},"data":[0,0,0,0,0,0,0,0,0,0,0,0,0,0,0,0,0,0,0,0,0,0,0,0,0,0,0,0,0,0,0,0,0,0,0,0,0,0,0,0,0,0,0,0,0,0,0,0,0,0,0,0,0,0,0,0,0,0,0.3045,0.3047,0,0.3218,0.322,0.3222,0.3368,0.337,0.3371,0.3373,0.3555,0.3558,0.3561,0,0,0,0,0,0,0,0,0,0,0,0,0,0.2845,0.2848,0.3045,0.3047,0.3049,0.3217,0.322,0.3222,0.3368,0.337,0.3372,0.3374,0.3553,0.3557,0.3561,0,0,0,0,0,0,0,0,0,0,0,0,0,0.2966,0.2849,0.3044,0.3142,0.3152,0.3217,0.322,0.3223,0.3367,0.337,0.3372,0.3375,0.3552,0.3557,0.3562,0.3545,0,0,0.3577,0.3579,0,0,0,0,0,0,0,0,0.2959,0.2973,0.3125,0.3135,0.3147,0.3274,0.3216,0.3331,0.3367,0.3286,0.3373,0.3376,0.3459,0.3472,0.35,0.3554,0.3561,0.3578,0.3581,0.3583,0.3584,0,0,0,0,0,0,0,0.295,0.2967,0.3113,0.3127,0.3141,0.3178,0.3198,0.3239,0.3357,0.3293,0.3304,0.3322,0.3466,0.3494,0.3505,0.3564,0.3578,0.3582,0.3585,0.3587,0.3614,0.3612,0,0,0,0,0,0,0.2926,0.2959,0.3108,0.3119,0.3057,0.318,0.3202,0.3231,0.3357,0.3379,0.332,0.3329,0.3485,0.3499,0.3512,0.3502,0.3583,0.3588,0.3591,0.3617,0.3614,0.3611,0,0,0,0,0,0,0.2921,0.2938,0.3101,0.3042,0.3065,0.3181,0.3212,0.3233,0.3262,0.3378,0.34,0.3327,0.3487,0.3505,0.3536,0.351,0.359,0.3594,0.3619,0.3616,0.3613,0.3481,0,0,0,0,0,0,0.2915,0.2936,0.2929,0.304,0.3068,0.312,0.321,0.3235,0.3269,0.3282,0.339,0.341,0.349,0.3527,0.3541,0.3519,0.3598,0.3622,0.3618,0.3614,0.3488,0.3473,0.346,0,0,0,0,0,0.2907,0.2886,0.2928,0.2946,0.3062,0.3118,0.3134,0.3225,0.3266,0.3262,0.3337,0.3407,0.351,0.3529,0.3546,0.3525,0.3624,0.3619,0.3614,0.3494,0.3476,0.3461,0,0,0,0,0,0,0.2771,0.2903,0.2951,0.2965,0.3029,0.3143,0.3141,0.3203,0.3259,0.3268,0.338,0.3403,0.3422,0.3477,0.3496,0.3516,0.3577,0.3574,0.348,0.3464,0.345,0.3438,0.3603,0,0,0,0,0,0.2742,0.2775,0.2889,0.289,0.292,0.3024,0.3052,0.3116,0.3188,0.3217,0.3294,0.3362,0.341,0.344,0.349,0.3495,0.3522,0.3489,0.3475,0.3463,0.3461,0.3469,0.3456,0.3595,0.3595,0.3595,0,0,0.2684,0.276,0.2774,0.2865,0.2922,0.2956,0.3046,0.3078,0.3104,0.3222,0.3256,0.3314,0.3398,0.3416,0.3428,0.3462,0.3428,0.3457,0.3446,0.3451,0.3462,0.3449,0.3437,0.3591,0.3592,0.3592,0,0,0.2596,0.2655,0.2663,0.2718,0.2803,0.2873,0.2874,0.2978,0.3021,0.3057,0.3146,0.3179,0.3259,0.3316,0.3355,0.3285,0.3353,0.3298,0.3228,0.3235,0.3224,0.3215,0.3192,0.3182,0.3295,0.3295,0.3295,0,0.2513,0.2565,0.266,0.2686,0.2723,0.2829,0.2839,0.2889,0.2986,0.3011,0.3046,0.3149,0.3213,0.3246,0.3229,0.3256,0.3263,0.3288,0.3217,0.3209,0.3202,0.3182,0.3172,0.3288,0.3289,0.3289,0.329,0,0.246,0.2495,0.2492,0.2582,0.2619,0.2636,0.2735,0.2761,0.2821,0.2887,0.2922,0.3002,0.3071,0.3083,0.3143,0.3125,0.3143,0.3196,0.3261,0.318,0.3163,0.3156,0.3278,0.328,0.3283,0.3284,0,0,0.2294,0.2434,0.2431,0.2473,0.2574,0.2604,0.2626,0.2692,0.2713,0.2776,0.28,0.2864,0.2914,0.2958,0.3025,0.303,0.2972,0.3083,0.3087,0.3061,0.2959,0.2919,0.2908,0.3015,0.3014,0.3013,0.2952,0,0.2223,0.2268,0.2353,0.2372,0.2406,0.2506,0.2526,0.2591,0.2652,0.2691,0.276,0.2804,0.2866,0.2893,0.2903,0.2976,0.2953,0.2982,0.304,0.3041,0.3018,0.2899,0.2858,0.2796,0.2946,0.2945,0.2944,0,0.2147,0.2203,0.2224,0.2323,0.234,0.2356,0.2424,0.2459,0.2534,0.2579,0.2627,0.2699,0.273,0.2786,0.2831,0.2849,0.2877,0.2917,0.2917,0.2928,0.2989,0.2909,0.2779,0.277,0.2934,0.2934,0.2935,0,0.2025,0.2105,0.2129,0.2162,0.2277,0.2286,0.2335,0.2412,0.2446,0.2505,0.2529,0.259,0.2625,0.2671,0.2759,0.2792,0.2794,0.2858,0.2834,0.2832,0.2832,0.2832,0.2707,0.2846,0.2846,0.2847,0.2847,0,0.1939,0.1949,0.2076,0.2091,0.2105,0.2202,0.2214,0.2272,0.234,0.2369,0.2459,0.2485,0.2598,0.2637,0.2706,0.2733,0.2748,0.2786,0.2805,0.2779,0.2774,0.2801,0.2809,0.2844,0.2845,0.2845,0.2846,0,0.1807,0.1892,0.1925,0.203,0.2056,0.2062,0.2153,0.2172,0.2238,0.2273,0.2287,0.2391,0.2441,0.2533,0.2609,0.2656,0.2669,0.27,0.2643,0.2655,0.2627,0.2629,0.2517,0.2508,0.265,0.2648,0.2647,0,0.1747,0.1757,0.1862,0.1887,0.1932,0.1971,0.2005,0.2101,0.2134,0.222,0.2229,0.2286,0.2337,0.2413,0.2496,0.2555,0.259,0.2546,0.26,0.2574,0.2592,0.2591,0.2593,0.2535,0.2533,0.2531,0.253,0,0.1633,0.1675,0.172,0.178,0.1818,0.187,0.1927,0.1943,0.2052,0.2084,0.2136,0.2175,0.2253,0.2309,0.238,0.2432,0.25,0.2512,0.251,0.2485,0.2453,0.2472,0.2613,0.2515,0.2516,0.2517,0.2518,0.2519,0.1538,0.1551,0.1627,0.1675,0.1727,0.1778,0.1801,0.1868,0.1912,0.1982,0.2036,0.2084,0.2159,0.2261,0.2309,0.2349,0.238,0.2377,0.2377,0.2375,0.2365,0.2444,0.2362,0.2362,0.2363,0.2363,0.2364,0,0.143,0.1483,0.1526,0.1602,0.1639,0.1697,0.1763,0.1791,0.1831,0.1895,0.1943,0.2002,0.2057,0.2143,0.2205,0.222,0.2253,0.2233,0.2234,0.2245,0.2333,0.2329,0.2206,0.2206,0.2206,0.2206,0.2206,0.2206,0.1379,0.1405,0.1454,0.1507,0.1562,0.1608,0.164,0.1688,0.174,0.1801,0.1846,0.1901,0.1975,0.2043,0.2095,0.212,0.2139,0.211,0.2144,0.2224,0.2239,0.2253,0.2251,0.2113,0.2113,0.2054,0.2054,0.2053]}]]